HYLAS 2

Last updated on Thu Jul 03 2025 00:02:46 GMT+0000 (Coordinated Universal Time)

1 38741U 12043B 25183.55211250 -.00000250 00000+0 00000+0 0 9999 2 38741 1.5232 85.5032 0002147 51.9268 269.6614 1.00270916 47265
UTC large
Height (km)
Speed (km/s)
/
Latitude / Longitude
Inclination (degrees)
Orbital Period (minutes)
Azimuth
Elevation
Range (km)
Doppler Factor

Next 0 passes for location: London (51.5072 / 0.1276)

Sorry there are no passes over London.